Хопкинсвилл

США     36°51′55″N   87°29′19″W
темп.,
°C
ветер,
м/с
пор.,
м/с
влажн.,
%
обл.,
%
осадки,
мм/ч
давл.,
гПа
погр.,
м
7 июля, чт
чт701:00+24ююз1192100 3.1 101414
04:00+24сз2394100 0.3 101449
07:00+25юз239123 0.4 101582
10:00+30з24645 0.0 1016661
13:00+34сз234944 0.0 10141785
16:00+31св1162100 0.1 101361
19:00+28в577998 0.3 1014271
22:00+24юв4994100 1.1 1014202
8 июля, пт
пт801:00+21ю24935 2.3 101477
04:00+23ююз23943 0.8 101456
07:00+23зюз279412 2.9 1015186
10:00+30юз47684 0.6 1015533
13:00+36зюз57430 0.6 10131967
16:00+37з574042 0.0 10122612
19:00+22ссз122089100 0.9 1015442
22:00+23зсз4684100 5.2 101390
9 июля, сб
сб901:00+22вюв2294100 6.8 101550
04:00+22зюз239784 3.6 101581
07:00+23зсз239559 3.8 1015139
10:00+27ссз228299 0.1 1016696
13:00+26св448087 0.3 1016631
16:00+26ссв4585100 0.4 1016602
19:00+26ссв577618 0.5 1014704
22:00+23ссв4108715 0.1 1016295
10 июля, вс
вс1001:00+23св387831 0.1 1016259
04:00+20ссв37930 0.0 1016162
07:00+20ссв37900 0.0 1016220
10:00+25ссв45680 0.0 1017715
13:00+29ссв44552 0.0 10161579
16:00+30ссв34484 0.0 10141898
19:00+27св24697 0.0 1014107
22:00+22ссв35810 0.0 101481
11 июля, пн
пн1101:00+20в22880 0.0 101413
04:00+20в22860 0.0 101411
07:00+21вюв23830 0.0 101581
10:00+27юв22650 0.0 1015592
13:00+32вюв12510 0.0 10131583
16:00+34всв23415 0.0 10111906
19:00+30св35659 0.0 1012127
22:00+25ю37730 0.0 1013128